Horseshoe Bay, TX

9:08 PM MDT on September 21, 2017 (GMT -0600)
Horseshoe Bay

Weather History for KDZB - June, 2014

Change the Weather History Date:

Saturday, June 7, 2014

  Actual Average (KBMQ) Record (KBMQ)
Temperature  
Mean Temperature 82 °F -  
Max Temperature 91 °F 86 °F 96 °F (2011)
Min Temperature 72 °F 67 °F 59 °F (1998)
Cooling Degree Days 16    
Growing Degree Days 32 (Base 50)    
Moisture  
Dew Point 66 °F    
Average Humidity 59    
Maximum Humidity 85    
Minimum Humidity 38    
Precipitation  
Precipitation 0.00 in - - ()
Sea Level Pressure  
Sea Level Pressure 29.90 in    
Wind  
Wind Speed 10 mph (SSE)    
Max Wind Speed 16 mph    
Max Gust Speed 24 mph    
Visibility 10 miles    
Events      
Averages and records for this station are not official NWS values.
T = Trace of Precipitation, MM = Missing Value Source: NWS Daily Summary

Daily Weather History Graph

Daily Weather History Graph

Search for Another Location

Airport or City:

Trip Planner

Search our weather history database for the weather conditions in past years. The results will help you decide how hot, cold, wet, or windy it might be!

Date:

Astronomy

Jun. 07, 2014 Rise Set
Actual Time 5:30 AM MDT 7:34 PM MDT
Civil Twilight 5:03 AM MDT 8:01 PM MDT
Nautical Twilight 4:29 AM MDT 8:35 PM MDT
Astronomical Twilight 3:54 AM MDT 9:10 PM MDT
Moon 2:13 PM MDT (6/7) 1:30 AM MDT (6/7)
Length of Visible Light 14h 58m
Length of Day
14h 03m
Waxing Gibbous, 68% of the Moon is Illuminated
Jun 7
Waxing Gibbous
Jun 12
Full
Jun 19
Last Quarter
Jun 27
New
Jul 5
First Quarter

Hourly Weather History & Observations

Time (MDT) Temp. Heat Index Dew Point Humidity Pressure Visibility Wind Dir Wind Speed Gust Speed Precip Events Conditions
12:15 AM 77.0 °F - 66.2 °F 69% 29.90 in 10.0 mi South 12.7 mph 21.9 mph N/A   Clear
12:35 AM 76.3 °F - 66.4 °F 71% 29.90 in 10.0 mi South 8.1 mph 17.3 mph N/A   Clear
12:55 AM 76.1 °F - 66.7 °F 73% 29.89 in 10.0 mi South 10.4 mph 21.9 mph N/A   Clear
1:15 AM 75.6 °F - 67.1 °F 75% 29.88 in 10.0 mi South 11.5 mph 18.4 mph N/A   Clear
1:35 AM 75.2 °F - 67.3 °F 76% 29.88 in 10.0 mi South 10.4 mph 19.6 mph N/A   Clear
1:55 AM 74.8 °F - 67.5 °F 78% 29.88 in 10.0 mi South 12.7 mph 17.3 mph N/A   Clear
2:15 AM 74.5 °F - 67.6 °F 79% 29.89 in 10.0 mi South 10.4 mph 16.1 mph N/A   Clear
2:35 AM 74.3 °F - 67.6 °F 80% 29.89 in 10.0 mi South 9.2 mph - N/A   Clear
2:55 AM 74.3 °F - 67.6 °F 80% 29.88 in 10.0 mi South 10.4 mph 18.4 mph N/A   Clear
3:15 AM 73.9 °F - 68.0 °F 82% 29.90 in 10.0 mi South 6.9 mph - N/A   Clear
3:35 AM 73.6 °F - 67.6 °F 82% 29.91 in 10.0 mi South 11.5 mph 16.1 mph N/A   Scattered Clouds
3:55 AM 73.6 °F - 67.6 °F 82% 29.90 in 10.0 mi South 8.1 mph - N/A   Clear
4:15 AM 73.4 °F - 67.5 °F 82% 29.91 in 10.0 mi South 8.1 mph - N/A   Clear
4:35 AM 73.4 °F - 67.3 °F 81% 29.92 in 10.0 mi SSE 5.8 mph - N/A   Clear
4:55 AM 72.9 °F - 67.1 °F 82% 29.95 in 10.0 mi SSE 3.5 mph - N/A   Clear
5:15 AM 72.5 °F - 67.1 °F 83% 29.94 in 10.0 mi SSE 3.5 mph - N/A   Clear
6:15 AM 72.5 °F - 67.8 °F 85% 29.96 in 10.0 mi Calm Calm - N/A   Mostly Cloudy
6:35 AM 73.4 °F - 68.2 °F 84% 29.97 in 10.0 mi Calm Calm - N/A   Overcast
6:55 AM 74.5 °F - 68.4 °F 81% 29.96 in 10.0 mi SSE 4.6 mph - N/A   Mostly Cloudy
7:35 AM 77.0 °F - 68.4 °F 75% 29.97 in 10.0 mi South 5.8 mph - N/A   Mostly Cloudy
7:55 AM 76.8 °F - 68.4 °F 75% 29.98 in 10.0 mi South 5.8 mph - N/A   Overcast
8:15 AM 79.3 °F - 67.6 °F 67% 29.97 in 10.0 mi South 12.7 mph 18.4 mph N/A   Mostly Cloudy
8:35 AM 80.1 °F 82.2 °F 66.4 °F 63% 29.97 in 10.0 mi South 16.1 mph 21.9 mph N/A   Scattered Clouds
8:55 AM 80.6 °F 82.5 °F 65.5 °F 60% 29.96 in 10.0 mi SSE 13.8 mph 24.2 mph N/A   Scattered Clouds
9:15 AM 82.0 °F 84.3 °F 66.2 °F 59% 29.96 in 10.0 mi South 13.8 mph 21.9 mph N/A   Clear
9:35 AM 82.9 °F 85.4 °F 66.6 °F 58% 29.97 in 10.0 mi South 8.1 mph - N/A   Scattered Clouds
9:55 AM 84.2 °F 86.1 °F 65.5 °F 53% 29.97 in 10.0 mi South 9.2 mph 20.7 mph N/A   Scattered Clouds
10:15 AM 84.4 °F 86.8 °F 66.4 °F 55% 29.97 in 10.0 mi SSE 9.2 mph 17.3 mph N/A   Scattered Clouds
10:35 AM 86.5 °F 88.7 °F 65.7 °F 50% 29.96 in 10.0 mi South 12.7 mph 18.4 mph N/A   Scattered Clouds
11:15 AM 86.7 °F 88.4 °F 65.1 °F 48% 29.96 in 10.0 mi South 11.5 mph 18.4 mph N/A   Scattered Clouds
11:35 AM 86.5 °F 88.1 °F 64.6 °F 48% 29.95 in 10.0 mi South 12.7 mph 20.7 mph N/A   Scattered Clouds
11:55 AM 87.4 °F 89.1 °F 65.1 °F 47% 29.94 in 10.0 mi South 10.4 mph 18.4 mph N/A   Scattered Clouds
12:15 PM 88.7 °F 90.8 °F 65.3 °F 46% 29.93 in 10.0 mi South 15.0 mph 24.2 mph N/A   Scattered Clouds
12:35 PM 89.6 °F 91.5 °F 64.8 °F 44% 29.93 in 10.0 mi South 12.7 mph 24.2 mph N/A   Scattered Clouds
12:55 PM 89.8 °F 91.8 °F 65.5 °F 44% 29.92 in 10.0 mi South 16.1 mph 23.0 mph N/A   Scattered Clouds
1:15 PM 89.1 °F 91.0 °F 65.3 °F 45% 29.91 in 10.0 mi South 9.2 mph 19.6 mph N/A   Scattered Clouds
1:35 PM 90.0 °F 92.0 °F 65.5 °F 44% 29.90 in 10.0 mi SSE 13.8 mph 18.4 mph N/A   Mostly Cloudy
1:55 PM 89.1 °F 90.6 °F 64.6 °F 44% 29.90 in 10.0 mi South 10.4 mph 20.7 mph N/A   Scattered Clouds
2:15 PM 90.5 °F 92.5 °F 65.3 °F 43% 29.88 in 10.0 mi South 9.2 mph 17.3 mph N/A   Scattered Clouds
2:35 PM 90.5 °F 92.2 °F 64.8 °F 42% 29.88 in 10.0 mi South 12.7 mph 20.7 mph N/A   Scattered Clouds
2:55 PM 90.3 °F 92.2 °F 64.9 °F 43% 29.88 in 10.0 mi South 9.2 mph 19.6 mph N/A   Scattered Clouds
3:15 PM 90.3 °F 91.9 °F 64.0 °F 42% 29.87 in 10.0 mi South 12.7 mph 18.4 mph N/A   Mostly Cloudy
3:35 PM 90.5 °F 92.2 °F 64.4 °F 42% 29.87 in 10.0 mi SSE 9.2 mph 19.6 mph N/A   Mostly Cloudy
3:55 PM 91.8 °F 93.4 °F 64.0 °F 40% 29.86 in 10.0 mi South 12.7 mph 18.4 mph N/A   Mostly Cloudy
4:15 PM 91.6 °F 92.3 °F 63.0 °F 38% 29.86 in 10.0 mi South 8.1 mph 20.7 mph N/A   Mostly Cloudy
4:35 PM 90.0 °F 91.3 °F 64.2 °F 42% 29.85 in 10.0 mi South 6.9 mph 16.1 mph N/A   Mostly Cloudy
4:55 PM 88.9 °F 90.3 °F 64.6 °F 44% 29.85 in 10.0 mi SSE 6.9 mph 17.3 mph N/A   Mostly Cloudy
5:15 PM 91.0 °F 92.2 °F 63.9 °F 40% 29.84 in 10.0 mi South 11.5 mph 18.4 mph N/A   Scattered Clouds
5:35 PM 90.5 °F 92.2 °F 64.4 °F 42% 29.84 in 10.0 mi South 8.1 mph - N/A   Scattered Clouds
5:55 PM 90.0 °F 91.7 °F 64.6 °F 43% 29.84 in 10.0 mi SSE 6.9 mph - N/A   Scattered Clouds
6:15 PM 89.6 °F 91.5 °F 64.8 °F 44% 29.84 in 10.0 mi SSE 10.4 mph 19.6 mph N/A   Scattered Clouds
6:35 PM 88.7 °F 90.4 °F 64.9 °F 45% 29.84 in 10.0 mi SE 9.2 mph 17.3 mph N/A   Clear
6:55 PM 87.4 °F 89.1 °F 65.1 °F 47% 29.84 in 10.0 mi SSE 6.9 mph - N/A   Clear
7:15 PM 86.2 °F 87.6 °F 64.6 °F 48% 29.85 in 10.0 mi SSE 10.4 mph 17.3 mph N/A   Clear
7:35 PM 84.9 °F 86.6 °F 64.9 °F 51% 29.85 in 10.0 mi SSE 4.6 mph - N/A   Clear
7:55 PM 83.8 °F 85.8 °F 65.5 °F 54% 29.85 in 10.0 mi SSE 8.1 mph - N/A   Clear
8:15 PM 83.3 °F 85.1 °F 64.9 °F 54% 29.85 in 10.0 mi SSE 6.9 mph - N/A   Clear
8:35 PM 82.8 °F 84.5 °F 64.9 °F 55% 29.86 in 10.0 mi SE 9.2 mph - N/A   Clear
8:55 PM 82.4 °F 84.1 °F 64.6 °F 55% 29.86 in 10.0 mi SSE 10.4 mph 17.3 mph N/A   Clear
9:15 PM 82.0 °F 83.8 °F 64.9 °F 56% 29.87 in 10.0 mi SSE 11.5 mph 17.3 mph N/A   Clear
9:35 PM 81.5 °F 83.4 °F 65.5 °F 58% 29.88 in 10.0 mi SSE 10.4 mph 16.1 mph N/A   Clear
9:55 PM 80.8 °F 82.6 °F 65.5 °F 59% 29.89 in 10.0 mi SSE 6.9 mph 17.3 mph N/A   Clear
10:15 PM 80.1 °F 82.0 °F 65.5 °F 61% 29.90 in 10.0 mi SE 5.8 mph - N/A   Clear
10:35 PM 79.3 °F - 65.3 °F 62% 29.90 in 10.0 mi SE 9.2 mph - N/A   Clear
10:55 PM 78.6 °F - 65.3 °F 64% 29.90 in 10.0 mi SSE 8.1 mph - N/A   Clear
11:15 PM 78.1 °F - 65.8 °F 66% 29.90 in 10.0 mi SE 6.9 mph 16.1 mph N/A   Clear
11:35 PM 77.4 °F - 66.2 °F 68% 29.90 in 10.0 mi SSE 6.9 mph - N/A   Clear